• In Uzbekistan
  • List of Countries
  • For 7 days
  • Water Temperature
  • Satellite Maps
  • Weather Map
  • Weather Widgets
  • user-avatar
    Login

    Hourly Weather San Juan

    Today, 18 August, Friday

    Time Temperature Precipitation Wind Pressure Humidity
    00:00 +18°C° 0 mm 3 mps 702 mmHg 18%
    01:00 +18°C° 0 mm 4 mps 701 mmHg 18%
    02:00 +18°C° 0 mm 4 mps 701 mmHg 18%
    03:00 +18°C° 0 mm 4 mps 700 mmHg 18%
    04:00 +17°C° 0 mm 5 mps 699 mmHg 18%
    05:00 +17°C° 0 mm 5 mps 699 mmHg 16%
    06:00 +17°C° 0 mm 5 mps 699 mmHg 15%
    07:00 +17°C° 0 mm 5 mps 699 mmHg 14%
    08:00 +21°C° 0 mm 5 mps 699 mmHg 11%
    09:00 +25°C° 0 mm 5 mps 699 mmHg 8%
    10:00 +28°C° 0 mm 5 mps 699 mmHg 6%
    11:00 +29°C° 0 mm 5 mps 699 mmHg 5%
    12:00 +30°C° 0 mm 5 mps 698 mmHg 5%
    13:00 +32°C° 0 mm 5 mps 698 mmHg 4%
    14:00 +30°C° 0 mm 5 mps 698 mmHg 5%
    15:00 +29°C° 0 mm 6 mps 698 mmHg 6%
    16:00 +28°C° 0 mm 6 mps 698 mmHg 7%
    17:00 +26°C° 0 mm 5 mps 698 mmHg 9%
    18:00 +23°C° 0 mm 5 mps 699 mmHg 12%
    19:00 +21°C° 0 mm 4 mps 700 mmHg 15%
    20:00 +20°C° 0 mm 4 mps 700 mmHg 17%
    21:00 +20°C° 0 mm 4 mps 701 mmHg 20%
    22:00 +19°C° 0 mm 4 mps 701 mmHg 23%
    23:00 +17°C° 0 mm 5 mps 701 mmHg 26%

    Tomorrow, 19 August, Saturday

    Time Temperature Precipitation Wind Pressure Humidity
    00:00 +16°C° 0 mm 5 mps 702 mmHg 29%
    01:00 +15°C° 0 mm 5 mps 702 mmHg 32%
    02:00 +14°C° 0 mm 6 mps 702 mmHg 43%
    03:00 +13°C° 0 mm 6 mps 703 mmHg 54%
    04:00 +11°C° 0 mm 6 mps 703 mmHg 65%
    05:00 +12°C° 0 mm 5 mps 704 mmHg 62%
    06:00 +12°C° 0 mm 4 mps 704 mmHg 59%
    07:00 +12°C° 0 mm 3 mps 705 mmHg 56%
    08:00 +14°C° 0 mm 3 mps 705 mmHg 48%
    09:00 +15°C° 0 mm 4 mps 705 mmHg 39%
    10:00 +18°C° 0 mm 4 mps 705 mmHg 31%
    11:00 +19°C° 0 mm 4 mps 705 mmHg 26%
    12:00 +21°C° 0 mm 5 mps 705 mmHg 21%
    13:00 +22°C° 0 mm 5 mps 705 mmHg 16%
    14:00 +22°C° 0 mm 5 mps 705 mmHg 16%
    15:00 +22°C° 0 mm 5 mps 705 mmHg 15%
    16:00 +22°C° 0 mm 5 mps 706 mmHg 15%
    17:00 +20°C° 0 mm 4 mps 707 mmHg 20%
    18:00 +19°C° 0 mm 3 mps 708 mmHg 25%
    19:00 +17°C° 0 mm 2 mps 709 mmHg 30%
    20:00 +17°C° 0 mm 2 mps 709 mmHg 33%
    21:00 +16°C° 0 mm 2 mps 710 mmHg 35%
    22:00 +15°C° 0 mm 1 mps 710 mmHg 38%
    23:00 +15°C° 0 mm 1 mps 710 mmHg 39%

    Day after tomorrow, 20 August, Sunday

    Time Temperature Precipitation Wind Pressure Humidity
    00:00 +14°C° 0 mm 1 mps 710 mmHg 40%
    01:00 +14°C° 0 mm 1 mps 710 mmHg 41%
    02:00 +13°C° 0 mm 2 mps 710 mmHg 42%
    03:00 +13°C° 0 mm 2 mps 710 mmHg 42%
    04:00 +12°C° 0 mm 2 mps 710 mmHg 42%
    05:00 +12°C° 0 mm 2 mps 711 mmHg 41%
    06:00 +13°C° 0 mm 2 mps 711 mmHg 40%
    07:00 +13°C° 0 mm 2 mps 712 mmHg 38%
    08:00 +14°C° 0 mm 2 mps 712 mmHg 36%
    09:00 +15°C° 0 mm 2 mps 712 mmHg 34%
    10:00 +17°C° 0 mm 2 mps 712 mmHg 31%
    11:00 +18°C° 0 mm 2 mps 711 mmHg 30%
    12:00 +19°C° 0 mm 2 mps 710 mmHg 28%
    13:00 +20°C° 0 mm 3 mps 710 mmHg 27%
    14:00 +20°C° 0 mm 3 mps 709 mmHg 27%
    15:00 +20°C° 0 mm 3 mps 709 mmHg 26%
    16:00 +20°C° 0 mm 3 mps 709 mmHg 26%
    17:00 +19°C° 0 mm 2 mps 709 mmHg 29%
    18:00 +19°C° 0 mm 1 mps 709 mmHg 33%
    19:00 +18°C° 0 mm 1 mps 710 mmHg 36%
    20:00 +18°C° 0 mm 1 mps 710 mmHg 37%
    21:00 +16°C° 0 mm 1 mps 710 mmHg 39%
    22:00 +15°C° 0 mm 1 mps 710 mmHg 40%
    23:00 +15°C° 0 mm 2 mps 709 mmHg 41%

    21 August, Monday

    Time Temperature Precipitation Wind Pressure Humidity
    00:00 +15°C° 0 mm 2 mps 709 mmHg 42%
    01:00 +14°C° 0 mm 3 mps 708 mmHg 42%
    02:00 +13°C° 0 mm 3 mps 708 mmHg 42%
    03:00 +13°C° 0 mm 3 mps 707 mmHg 41%
    04:00 +14°C° 0 mm 2 mps 707 mmHg 40%
    05:00 +14°C° 0 mm 2 mps 707 mmHg 38%
    06:00 +15°C° 0 mm 2 mps 708 mmHg 36%
    07:00 +15°C° 0 mm 2 mps 708 mmHg 33%
    08:00 +17°C° 0 mm 3 mps 708 mmHg 29%
    09:00 +19°C° 0 mm 3 mps 708 mmHg 25%
    10:00 +22°C° 0 mm 3 mps 708 mmHg 21%
    11:00 +24°C° 0 mm 3 mps 707 mmHg 19%
    12:00 +25°C° 0 mm 3 mps 706 mmHg 17%
    13:00 +26°C° 0 mm 3 mps 706 mmHg 15%
    14:00 +26°C° 0 mm 4 mps 705 mmHg 15%
    15:00 +26°C° 0 mm 4 mps 705 mmHg 15%
    16:00 +27°C° 0 mm 4 mps 704 mmHg 14%
    17:00 +25°C° 0 mm 4 mps 704 mmHg 16%
    18:00 +22°C° 0 mm 4 mps 704 mmHg 18%
    19:00 +21°C° 0 mm 4 mps 704 mmHg 20%
    20:00 +20°C° 0 mm 4 mps 704 mmHg 20%
    21:00 +20°C° 0 mm 4 mps 704 mmHg 20%
    22:00 +20°C° 0 mm 4 mps 703 mmHg 20%
    23:00 +20°C° 0 mm 4 mps 703 mmHg 19%

    22 August, Tuesday

    Time Temperature Precipitation Wind Pressure Humidity
    00:00 +19°C° 0 mm 5 mps 702 mmHg 19%
    01:00 +19°C° 0 mm 5 mps 701 mmHg 19%
    02:00 +19°C° 0 mm 5 mps 701 mmHg 18%
    03:00 +19°C° 0 mm 4 mps 700 mmHg 18%
    04:00 +19°C° 0 mm 4 mps 699 mmHg 17%
    05:00 +19°C° 0 mm 4 mps 699 mmHg 16%
    06:00 +19°C° 0 mm 4 mps 699 mmHg 15%
    07:00 +20°C° 0 mm 4 mps 699 mmHg 14%
    08:00 +23°C° 0 mm 5 mps 699 mmHg 12%
    09:00 +27°C° 0 mm 5 mps 699 mmHg 9%
    10:00 +30°C° 0 mm 6 mps 698 mmHg 7%
    11:00 +32°C° 0 mm 6 mps 697 mmHg 5%
    12:00 +34°C° 0 mm 7 mps 697 mmHg 4%
    13:00 +37°C° 0 mm 8 mps 696 mmHg 3%
    14:00 +35°C° 0 mm 7 mps 696 mmHg 3%
    15:00 +35°C° 0 mm 7 mps 696 mmHg 3%
    16:00 +34°C° 0 mm 6 mps 695 mmHg 4%
    17:00 +32°C° 0 mm 5 mps 696 mmHg 5%
    18:00 +28°C° 0 mm 4 mps 696 mmHg 7%
    19:00 +25°C° 0 mm 4 mps 697 mmHg 9%
    20:00 +23°C° 0 mm 4 mps 697 mmHg 10%
    21:00 +22°C° 0 mm 4 mps 697 mmHg 11%
    22:00 +21°C° 0 mm 3 mps 697 mmHg 11%
    23:00 +20°C° 0 mm 4 mps 698 mmHg 13%

    23 August, Wednesday

    Time Temperature Precipitation Wind Pressure Humidity
    00:00 +19°C° 0 mm 4 mps 698 mmHg 14%
    01:00 +19°C° 0 mm 4 mps 698 mmHg 15%
    02:00 +16°C° 0 mm 6 mps 699 mmHg 19%
    03:00 +14°C° 0 mm 7 mps 700 mmHg 22%
    04:00 +12°C° 0 mm 9 mps 701 mmHg 25%
    05:00 +11°C° 0 mm 8 mps 702 mmHg 31%
    06:00 +9°C° 0 mm 8 mps 703 mmHg 37%
    07:00 +7°C° 0 mm 8 mps 705 mmHg 42%
    08:00 +9°C° 0 mm 7 mps 705 mmHg 39%
    09:00 +10°C° 0 mm 7 mps 705 mmHg 36%
    10:00 +13°C° 0 mm 6 mps 704 mmHg 33%
    11:00 +14°C° 0 mm 6 mps 704 mmHg 31%
    12:00 +15°C° 0 mm 6 mps 703 mmHg 28%
    13:00 +16°C° 0 mm 5 mps 702 mmHg 26%
    14:00 +16°C° 0 mm 5 mps 702 mmHg 26%
    15:00 +15°C° 0 mm 5 mps 702 mmHg 25%
    16:00 +15°C° 0 mm 4 mps 702 mmHg 25%
    17:00 +14°C° 0 mm 3 mps 703 mmHg 27%
    18:00 +13°C° 0 mm 3 mps 703 mmHg 29%
    19:00 +13°C° 0 mm 2 mps 703 mmHg 32%
    20:00 +13°C° 0 mm 2 mps 703 mmHg 31%
    21:00 +13°C° 0 mm 2 mps 703 mmHg 31%
    22:00 +13°C° 0 mm 2 mps 703 mmHg 30%
    23:00 +13°C° 0 mm 2 mps 703 mmHg 31%
    Show more